TimeEST,TemperatureF,Dew PointF,Humidity,Sea Level PressureIn,VisibilityMPH,Wind Direction,Wind SpeedMPH,Gust SpeedMPH,PrecipitationIn,Events,Conditions,WindDirDegrees,DateUTC
12:00 AM,5.0,3.0,92,30.07,-9999.0,Calm,Calm,-,N/A,,Clear,0,2013-01-26 05:00:00
1:00 AM,6.1,3.0,87,30.09,-9999.0,WNW,3.5,-,N/A,,Partly Cloudy,300,2013-01-26 06:00:00
2:00 AM,1.9,-0.9,88,30.07,-9999.0,Calm,Calm,-,N/A,,Clear,0,2013-01-26 07:00:00
3:00 AM,3.9,1.9,91,30.06,-9999.0,Calm,Calm,-,N/A,,Clear,0,2013-01-26 08:00:00
4:00 AM,1.0,-2.0,87,30.07,-9999.0,Calm,Calm,-,N/A,,Clear,0,2013-01-26 09:00:00
5:00 AM,-0.0,-2.0,91,30.09,-9999.0,WNW,3.5,-,N/A,,Clear,300,2013-01-26 10:00:00
6:00 AM,10.9,7.0,84,30.11,-9999.0,WNW,3.5,-,N/A,,Overcast,300,2013-01-26 11:00:00
7:00 AM,14.0,10.0,84,30.12,-9999.0,NW,4.6,-,N/A,,Overcast,310,2013-01-26 12:00:00
8:00 AM,12.9,10.0,88,30.14,-9999.0,WNW,5.8,-,N/A,,Mostly Cloudy,300,2013-01-26 13:00:00
9:00 AM,18.0,12.0,78,30.16,-9999.0,WNW,9.2,-,N/A,,Clear,300,2013-01-26 14:00:00
10:00 AM,19.9,10.9,68,30.17,-9999.0,NW,9.2,16.1,N/A,,Clear,320,2013-01-26 15:00:00
11:00 AM,21.9,10.0,60,30.18,-9999.0,NW,8.1,17.3,N/A,,Overcast,320,2013-01-26 16:00:00
12:00 PM,21.9,10.0,60,30.19,-9999.0,WNW,11.5,-,N/A,,Mostly Cloudy,300,2013-01-26 17:00:00
1:00 PM,25.0,10.0,53,30.14,-9999.0,Variable,5.8,16.1,N/A,,Clear,0,2013-01-26 18:00:00
2:00 PM,26.1,9.0,49,30.15,-9999.0,WNW,12.7,20.7,N/A,,Clear,300,2013-01-26 19:00:00
3:00 PM,27.0,7.0,43,30.16,-9999.0,WNW,12.7,24.2,N/A,,Clear,300,2013-01-26 20:00:00
4:00 PM,27.0,7.0,43,30.18,-9999.0,WNW,12.7,21.9,N/A,,Clear,300,2013-01-26 21:00:00
5:00 PM,26.1,7.0,44,30.20,-9999.0,WNW,6.9,-,N/A,,Clear,300,2013-01-26 22:00:00
6:00 PM,25.0,7.0,46,30.24,-9999.0,NW,9.2,-,N/A,,Clear,310,2013-01-26 23:00:00
7:00 PM,24.1,6.1,46,30.26,-9999.0,NW,6.9,-,N/A,,Clear,320,2013-01-27 00:00:00
8:00 PM,23.0,6.1,48,30.30,-9999.0,NW,8.1,17.3,N/A,,Clear,320,2013-01-27 01:00:00
9:00 PM,19.0,6.1,57,30.32,-9999.0,Calm,Calm,-,N/A,,Clear,0,2013-01-27 02:00:00
10:00 PM,15.1,5.0,64,30.35,-9999.0,North,-9999.0,-,N/A,,Clear,0,2013-01-27 03:00:00
11:00 PM,15.1,5.0,64,30.38,-9999.0,NW,3.5,-,N/A,,Clear,310,2013-01-27 04:00:00